DLH470 EDDF-CYYZ

Flight info

Callsign DLH470
Flight time 7h 52m
Altitude 36000
Route OBOKA3W OBOKA Z28 DIBIR DCT BUDIP DCT MIMVA DCT GETNO DCT NIBOG DCT PIKIL/M082F370 NATB JANJO/N0481F380 DCT ALKOB DCT YBC DCT POLTY IMEBA9
Aircraft B748/H-SDE3FGHIM1M2RWXY/LB1

Departure

Time 2026-05-05 12:19
Airport Frankfurt Main Airport (EDDF)

Arrival

Time 2026-05-05 20:11
Airport Toronto Pearson International Airport (CYYZ)
Time Latitude Longitude Altitude Speed Heading
2026-05-05 11:50 50.04653 8.57048 350 ft 0 kts 90°
2026-05-05 12:05 50.04653 8.57045 358 ft 1 kts 90°
2026-05-05 12:05 50.04653 8.57029 357 ft 2 kts 90°
2026-05-05 12:05 50.04653 8.57012 352 ft 2 kts 90°
2026-05-05 12:06 50.04653 8.56995 357 ft 2 kts 90°
2026-05-05 12:06 50.04653 8.56977 355 ft 2 kts 98°
2026-05-05 12:06 50.04655 8.56960 356 ft 2 kts 117°
2026-05-05 12:06 50.04661 8.56945 360 ft 2 kts 181°
2026-05-05 12:07 50.04671 8.56946 360 ft 1 kts 204°
2026-05-05 12:07 50.04663 8.56940 359 ft 1 kts 204°
2026-05-05 12:07 50.04654 8.56934 359 ft 2 kts 204°
2026-05-05 12:07 50.04643 8.56927 358 ft 2 kts 201°
2026-05-05 12:08 50.04631 8.56922 356 ft 2 kts 195°
2026-05-05 12:08 50.04619 8.56917 355 ft 2 kts 195°
2026-05-05 12:08 50.04606 8.56912 356 ft 2 kts 193°
2026-05-05 12:08 50.04591 8.56906 356 ft 2 kts 193°
2026-05-05 12:09 50.04576 8.56901 357 ft 2 kts 193°
2026-05-05 12:09 50.04561 8.56895 358 ft 2 kts 193°
2026-05-05 12:09 50.04547 8.56890 354 ft 1 kts 193°
2026-05-05 12:09 50.04546 8.56890 354 ft 0 kts 193°
2026-05-05 12:11 50.04545 8.56889 353 ft 1 kts 194°
2026-05-05 12:12 50.04535 8.56886 353 ft 2 kts 194°
2026-05-05 12:12 50.04512 8.56877 352 ft 5 kts 194°
2026-05-05 12:12 50.04469 8.56861 357 ft 8 kts 193°
2026-05-05 12:12 50.04409 8.56843 356 ft 9 kts 189°
2026-05-05 12:13 50.04341 8.56824 355 ft 11 kts 191°
2026-05-05 12:13 50.04305 8.56823 354 ft 2 kts 159°
2026-05-05 12:13 50.04287 8.56858 359 ft 6 kts 116°
2026-05-05 12:13 50.04287 8.56950 358 ft 11 kts 73°
2026-05-05 12:14 50.04318 8.57080 359 ft 14 kts 70°
2026-05-05 12:14 50.04352 8.57221 355 ft 14 kts 69°
2026-05-05 12:14 50.04388 8.57371 360 ft 15 kts 70°
2026-05-05 12:14 50.04423 8.57521 354 ft 14 kts 70°
2026-05-05 12:15 50.04457 8.57662 360 ft 14 kts 69°
2026-05-05 12:15 50.04495 8.57819 355 ft 17 kts 70°
2026-05-05 12:15 50.04538 8.58000 355 ft 19 kts 70°
2026-05-05 12:15 50.04586 8.58201 359 ft 21 kts 70°
2026-05-05 12:16 50.04637 8.58415 355 ft 21 kts 69°
2026-05-05 12:16 50.04649 8.58543 355 ft 4 kts 117°
2026-05-05 12:16 50.04624 8.58571 355 ft 5 kts 158°
2026-05-05 12:16 50.04615 8.58576 356 ft 0 kts 159°
2026-05-05 12:17 50.04613 8.58577 359 ft 2 kts 159°
2026-05-05 12:17 50.04586 8.58593 357 ft 7 kts 159°
2026-05-05 12:17 50.04529 8.58618 356 ft 7 kts 182°
2026-05-05 12:17 50.04475 8.58545 358 ft 15 kts 242°
2026-05-05 12:18 50.04420 8.58310 355 ft 45 kts 249°
2026-05-05 12:18 50.04227 8.57501 355 ft 112 kts 250°
2026-05-05 12:18 50.03888 8.56083 357 ft 165 kts 249°
2026-05-05 12:18 50.03445 8.54218 470 ft 195 kts 249°
2026-05-05 12:19 50.02963 8.52232 1078 ft 198 kts 249°
2026-05-05 12:19 50.02365 8.50206 1576 ft 214 kts 235°
2026-05-05 12:19 50.01271 8.48578 2072 ft 226 kts 212°
2026-05-05 12:19 49.99792 8.47846 2887 ft 216 kts 188°
2026-05-05 12:20 49.98349 8.47562 3853 ft 206 kts 186°
2026-05-05 12:20 49.96903 8.47297 4346 ft 210 kts 187°
2026-05-05 12:20 49.95480 8.46807 4696 ft 216 kts 198°
2026-05-05 12:20 49.93970 8.46083 4955 ft 235 kts 196°
2026-05-05 12:21 49.92384 8.45340 5219 ft 242 kts 202°
2026-05-05 12:21 49.91032 8.43784 5554 ft 247 kts 233°
2026-05-05 12:21 49.90114 8.41573 5980 ft 249 kts 238°
2026-05-05 12:21 49.89238 8.39238 6398 ft 250 kts 239°
2026-05-05 12:22 49.88584 8.36701 6783 ft 268 kts 262°
2026-05-05 12:22 49.88603 8.33773 7246 ft 272 kts 274°
2026-05-05 12:22 49.88819 8.30813 7776 ft 279 kts 275°
2026-05-05 12:22 49.89042 8.27812 8302 ft 283 kts 279°
2026-05-05 12:23 49.89798 8.24990 8868 ft 288 kts 303°
2026-05-05 12:23 49.90977 8.22431 9427 ft 293 kts 306°
2026-05-05 12:23 49.92231 8.19906 9826 ft 297 kts 306°
2026-05-05 12:23 49.93502 8.17284 10013 ft 313 kts 305°
2026-05-05 12:24 49.95009 8.14738 10342 ft 332 kts 317°
2026-05-05 12:24 49.96802 8.12323 10627 ft 347 kts 319°
2026-05-05 12:24 49.98668 8.09917 10991 ft 350 kts 319°
2026-05-05 12:24 50.00536 8.07444 11392 ft 355 kts 318°
2026-05-05 12:25 50.02401 8.04917 11795 ft 353 kts 318°
2026-05-05 12:25 50.04236 8.02445 12207 ft 351 kts 318°
2026-05-05 12:25 50.06121 7.99926 12569 ft 360 kts 318°
2026-05-05 12:25 50.08027 7.97375 13015 ft 363 kts 318°
2026-05-05 12:26 50.09950 7.94788 13473 ft 367 kts 318°
2026-05-05 12:26 50.11884 7.92183 13893 ft 370 kts 318°
2026-05-05 12:26 50.13840 7.89550 14336 ft 371 kts 318°
2026-05-05 12:26 50.15771 7.86947 14813 ft 374 kts 318°
2026-05-05 12:27 50.17747 7.84279 15307 ft 377 kts 318°
2026-05-05 12:27 50.19742 7.81583 15807 ft 380 kts 317°
2026-05-05 12:27 50.21748 7.78869 16305 ft 383 kts 317°
2026-05-05 12:27 50.23768 7.76133 16831 ft 386 kts 317°
2026-05-05 12:28 50.25903 7.73558 17338 ft 391 kts 329°
2026-05-05 12:28 50.28368 7.71679 17763 ft 396 kts 336°
2026-05-05 12:28 50.30926 7.70048 18157 ft 398 kts 337°
2026-05-05 12:28 50.33496 7.68390 18520 ft 400 kts 335°
2026-05-05 12:29 50.36039 7.66606 18864 ft 402 kts 334°
2026-05-05 12:29 50.38593 7.64798 19198 ft 404 kts 335°
2026-05-05 12:29 50.41175 7.63035 19539 ft 405 kts 335°
2026-05-05 12:29 50.43772 7.61278 19879 ft 407 kts 335°
2026-05-05 12:30 50.46370 7.59488 20225 ft 409 kts 335°
2026-05-05 12:30 50.48983 7.57672 20574 ft 412 kts 335°
2026-05-05 12:30 50.51612 7.55855 20931 ft 414 kts 335°
2026-05-05 12:30 50.54221 7.54059 21284 ft 416 kts 335°
2026-05-05 12:31 50.56795 7.51996 21670 ft 416 kts 327°
2026-05-05 12:31 50.59245 7.49526 22035 ft 420 kts 324°
2026-05-05 12:31 50.61680 7.46950 22416 ft 422 kts 324°
2026-05-05 12:31 50.64146 7.44394 22801 ft 425 kts 326°
2026-05-05 12:32 50.66642 7.41872 23228 ft 427 kts 326°
2026-05-05 12:32 50.69151 7.39318 23655 ft 430 kts 325°
2026-05-05 12:32 50.71659 7.36723 24053 ft 432 kts 324°
2026-05-05 12:32 50.74085 7.33910 24471 ft 431 kts 314°
2026-05-05 12:33 50.76034 7.30365 24937 ft 427 kts 303°
2026-05-05 12:33 50.77760 7.26543 25344 ft 428 kts 302°
2026-05-05 12:33 50.79465 7.22686 25761 ft 428 kts 302°
2026-05-05 12:33 50.81179 7.18819 26187 ft 429 kts 302°
2026-05-05 12:34 50.82906 7.14960 26629 ft 430 kts 302°
2026-05-05 12:34 50.84634 7.11091 27070 ft 431 kts 301°
2026-05-05 12:34 50.86356 7.07209 27509 ft 431 kts 301°
2026-05-05 12:34 50.88076 7.03321 27943 ft 431 kts 301°
2026-05-05 12:35 50.89801 6.99428 28343 ft 433 kts 301°
2026-05-05 12:35 50.91353 6.95924 28682 ft 435 kts 301°
2026-05-05 12:35 50.93096 6.91985 29069 ft 437 kts 301°
2026-05-05 12:35 50.94840 6.88035 29468 ft 438 kts 301°
2026-05-05 12:36 50.96589 6.84065 29863 ft 440 kts 301°
2026-05-05 12:36 50.98342 6.80082 30219 ft 441 kts 301°
2026-05-05 12:36 51.00101 6.76081 30562 ft 442 kts 301°
2026-05-05 12:36 51.01838 6.72122 30904 ft 443 kts 301°
2026-05-05 12:37 51.03626 6.68041 31185 ft 446 kts 301°
2026-05-05 12:37 51.05403 6.63976 31395 ft 449 kts 301°
2026-05-05 12:37 51.07193 6.59876 31596 ft 454 kts 301°
2026-05-05 12:37 51.08979 6.55783 31793 ft 458 kts 300°
2026-05-05 12:38 51.10797 6.51604 31983 ft 462 kts 300°
2026-05-05 12:38 51.12634 6.47374 32167 ft 466 kts 300°
2026-05-05 12:38 51.14477 6.43128 32402 ft 466 kts 300°
2026-05-05 12:38 51.16322 6.38868 32664 ft 467 kts 300°
2026-05-05 12:39 51.18161 6.34615 32887 ft 466 kts 300°
2026-05-05 12:39 51.19996 6.30362 33135 ft 465 kts 300°
2026-05-05 12:39 51.21829 6.26109 33379 ft 464 kts 300°
2026-05-05 12:39 51.23650 6.21876 33623 ft 463 kts 299°
2026-05-05 12:40 51.25468 6.17644 33865 ft 462 kts 299°
2026-05-05 12:40 51.27279 6.13421 34083 ft 462 kts 299°
2026-05-05 12:40 51.29033 6.09119 34330 ft 461 kts 298°
2026-05-05 12:40 51.30806 6.04818 34565 ft 463 kts 299°
2026-05-05 12:41 51.32597 6.00527 34813 ft 464 kts 298°
2026-05-05 12:41 51.34365 5.96204 35054 ft 465 kts 298°
2026-05-05 12:41 51.36102 5.91900 35240 ft 468 kts 298°
2026-05-05 12:41 51.38012 5.87665 35427 ft 473 kts 308°
2026-05-05 12:42 51.40355 5.83982 35659 ft 478 kts 314°
2026-05-05 12:42 51.42849 5.80446 35828 ft 479 kts 314°
2026-05-05 12:42 51.47874 5.73333 35905 ft 487 kts 314°
2026-05-05 12:43 51.52975 5.66053 35918 ft 492 kts 314°
2026-05-05 12:43 51.58097 5.58743 35924 ft 492 kts 314°
2026-05-05 12:44 51.63200 5.51421 35923 ft 491 kts 314°
2026-05-05 12:44 51.68292 5.44102 35924 ft 491 kts 314°
2026-05-05 12:45 51.73375 5.36765 35926 ft 490 kts 314°
2026-05-05 12:45 51.78445 5.29429 35926 ft 489 kts 314°
2026-05-05 12:46 51.83505 5.22081 35932 ft 489 kts 314°
2026-05-05 12:46 51.88562 5.14717 35939 ft 488 kts 314°
2026-05-05 12:47 51.93607 5.07346 35937 ft 489 kts 314°
2026-05-05 12:47 51.98622 4.99996 35932 ft 488 kts 314°
2026-05-05 12:48 52.03654 4.92598 35938 ft 487 kts 314°
2026-05-05 12:48 52.08662 4.85211 35938 ft 482 kts 314°
2026-05-05 12:49 52.13583 4.77932 35928 ft 476 kts 314°
2026-05-05 12:49 52.18469 4.70677 35934 ft 475 kts 314°
2026-05-05 12:50 52.23342 4.63425 35932 ft 472 kts 314°
2026-05-05 12:50 52.28175 4.56205 35931 ft 469 kts 314°
2026-05-05 12:51 52.32984 4.49001 35931 ft 469 kts 314°
2026-05-05 12:51 52.37826 4.41722 35953 ft 479 kts 314°
2026-05-05 12:52 52.41935 4.35531 35955 ft 485 kts 314°
2026-05-05 12:52 52.46910 4.28014 35959 ft 486 kts 314°
2026-05-05 12:53 52.51875 4.20483 35968 ft 486 kts 314°
2026-05-05 12:53 52.56837 4.12936 35970 ft 485 kts 314°
2026-05-05 12:54 52.64264 4.01592 35976 ft 485 kts 314°
2026-05-05 12:55 52.69207 3.94012 35979 ft 485 kts 314°
2026-05-05 12:55 52.74143 3.86416 35982 ft 485 kts 314°
2026-05-05 12:56 52.79078 3.78799 35984 ft 486 kts 314°
2026-05-05 12:56 52.83984 3.71201 35991 ft 486 kts 314°
2026-05-05 12:57 52.88916 3.63539 35998 ft 486 kts 314°
2026-05-05 12:57 52.93841 3.55862 35996 ft 486 kts 314°
2026-05-05 12:58 52.98756 3.48176 36001 ft 485 kts 314°
2026-05-05 12:58 53.03654 3.40491 36000 ft 484 kts 314°
2026-05-05 12:59 53.08333 3.32517 36016 ft 479 kts 302°
2026-05-05 12:59 53.11243 3.22701 36009 ft 471 kts 282°
2026-05-05 13:00 53.13653 3.06912 36001 ft 471 kts 282°
2026-05-05 13:01 53.16833 2.85714 36001 ft 471 kts 282°
2026-05-05 13:01 53.18407 2.75105 36002 ft 472 kts 282°
2026-05-05 13:02 53.19976 2.64472 35996 ft 472 kts 282°
2026-05-05 13:02 53.21532 2.53839 36000 ft 472 kts 282°
2026-05-05 13:03 53.23083 2.43181 36005 ft 473 kts 282°
2026-05-05 13:03 53.24627 2.32490 36008 ft 474 kts 282°
2026-05-05 13:04 53.26164 2.21778 36009 ft 475 kts 282°
2026-05-05 13:04 53.27695 2.11026 36005 ft 476 kts 282°
2026-05-05 13:05 53.29219 2.00257 36009 ft 476 kts 282°
2026-05-05 13:05 53.30723 1.89548 36008 ft 476 kts 282°
2026-05-05 13:06 53.32234 1.78710 36010 ft 476 kts 282°
2026-05-05 13:06 53.33719 1.67982 36011 ft 476 kts 282°
2026-05-05 13:07 53.35204 1.57182 36009 ft 476 kts 282°
2026-05-05 13:07 53.36681 1.46354 36011 ft 478 kts 282°
2026-05-05 13:08 53.38152 1.35497 36006 ft 478 kts 282°
2026-05-05 13:08 53.39615 1.24617 36009 ft 479 kts 282°
2026-05-05 13:09 53.41069 1.13720 36008 ft 479 kts 282°
2026-05-05 13:09 53.42517 1.02784 36008 ft 479 kts 282°
2026-05-05 13:10 53.43952 0.91870 36007 ft 479 kts 281°
2026-05-05 13:10 53.45370 0.81006 36002 ft 479 kts 281°
2026-05-05 13:11 53.46783 0.70090 36005 ft 478 kts 281°
2026-05-05 13:11 53.48183 0.59184 36004 ft 477 kts 281°
2026-05-05 13:12 53.49568 0.48325 35988 ft 476 kts 281°
2026-05-05 13:12 53.50943 0.37454 35989 ft 475 kts 281°
2026-05-05 13:13 53.52307 0.26574 35989 ft 475 kts 281°
2026-05-05 13:13 53.53662 0.15694 35992 ft 475 kts 281°
2026-05-05 13:14 53.55008 0.04803 35988 ft 475 kts 281°
2026-05-05 13:14 53.56333 -0.06018 35992 ft 475 kts 281°
2026-05-05 13:15 53.57658 -0.16915 35991 ft 476 kts 281°
2026-05-05 13:15 53.58975 -0.27838 36006 ft 476 kts 281°
2026-05-05 13:16 53.60284 -0.38786 35995 ft 477 kts 281°
2026-05-05 13:16 53.61582 -0.49732 36000 ft 477 kts 280°
2026-05-05 13:17 53.62875 -0.60727 36001 ft 477 kts 280°
2026-05-05 13:17 53.64146 -0.71622 36004 ft 476 kts 280°
2026-05-05 13:18 53.65413 -0.82578 36000 ft 477 kts 280°
2026-05-05 13:18 53.66672 -0.93561 36003 ft 476 kts 280°
2026-05-05 13:19 53.67919 -1.04529 36005 ft 477 kts 280°
2026-05-05 13:19 53.69157 -1.15519 35998 ft 477 kts 280°
2026-05-05 13:20 53.70388 -1.26536 36009 ft 476 kts 280°
2026-05-05 13:20 53.71598 -1.37461 36014 ft 476 kts 280°
2026-05-05 13:21 53.72804 -1.48453 36021 ft 476 kts 279°
2026-05-05 13:21 53.73998 -1.59430 36022 ft 475 kts 279°
2026-05-05 13:22 53.75181 -1.70405 36025 ft 475 kts 279°
2026-05-05 13:22 53.76355 -1.81394 36023 ft 475 kts 279°
2026-05-05 13:23 53.77518 -1.92380 36027 ft 474 kts 279°
2026-05-05 13:23 53.78671 -2.03367 36026 ft 474 kts 279°
2026-05-05 13:24 53.79813 -2.14356 36028 ft 473 kts 279°
2026-05-05 13:24 53.80942 -2.25327 36030 ft 473 kts 279°
2026-05-05 13:25 53.82061 -2.36295 36032 ft 472 kts 279°
2026-05-05 13:25 53.83161 -2.47186 36041 ft 472 kts 279°
2026-05-05 13:26 53.84257 -2.58140 36047 ft 472 kts 279°
2026-05-05 13:26 53.85344 -2.69117 36050 ft 472 kts 279°
2026-05-05 13:27 53.86422 -2.80096 36054 ft 472 kts 278°
2026-05-05 13:27 53.87491 -2.91095 36053 ft 473 kts 278°
2026-05-05 13:28 53.88548 -3.02085 36060 ft 472 kts 278°
2026-05-05 13:28 53.89595 -3.13076 36056 ft 472 kts 278°
2026-05-05 13:29 53.90629 -3.24050 36056 ft 471 kts 278°
2026-05-05 13:29 53.91654 -3.35030 36054 ft 471 kts 278°
2026-05-05 13:30 53.92659 -3.45914 36055 ft 470 kts 278°
2026-05-05 13:30 53.94355 -3.56615 36048 ft 471 kts 287°
2026-05-05 13:31 53.96434 -3.67172 36051 ft 471 kts 287°
2026-05-05 13:31 53.98475 -3.77751 36054 ft 470 kts 287°
2026-05-05 13:32 54.00518 -3.88315 36054 ft 470 kts 287°
2026-05-05 13:32 54.02542 -3.98876 36058 ft 469 kts 287°
2026-05-05 13:33 54.04557 -4.09432 36057 ft 469 kts 287°
2026-05-05 13:33 54.06548 -4.19931 36065 ft 468 kts 286°
2026-05-05 13:34 54.08539 -4.30483 36060 ft 468 kts 286°
2026-05-05 13:34 54.10523 -4.41061 36057 ft 468 kts 286°
2026-05-05 13:35 54.12498 -4.51646 36055 ft 468 kts 286°
2026-05-05 13:35 54.14462 -4.62237 36057 ft 468 kts 286°
2026-05-05 13:36 54.16404 -4.72761 36060 ft 468 kts 286°
2026-05-05 13:36 54.18351 -4.83380 36063 ft 469 kts 286°
2026-05-05 13:37 54.20291 -4.94019 36068 ft 469 kts 286°
2026-05-05 13:37 54.22225 -5.04688 36073 ft 470 kts 286°
2026-05-05 13:38 54.24149 -5.15363 36079 ft 470 kts 286°
2026-05-05 13:38 54.26062 -5.26041 36084 ft 470 kts 286°
2026-05-05 13:39 54.27646 -5.34928 36087 ft 470 kts 286°
2026-05-05 13:39 54.29547 -5.45650 36086 ft 471 kts 286°
2026-05-05 13:40 54.31440 -5.56390 36087 ft 471 kts 286°
2026-05-05 13:40 54.33323 -5.67141 36088 ft 470 kts 286°
2026-05-05 13:41 54.35195 -5.77895 36084 ft 470 kts 286°
2026-05-05 13:41 54.37043 -5.88570 36082 ft 470 kts 286°
2026-05-05 13:42 54.38894 -5.99330 36085 ft 470 kts 285°
2026-05-05 13:42 54.40735 -6.10098 36087 ft 470 kts 285°
2026-05-05 13:43 54.42568 -6.20884 36090 ft 470 kts 285°
2026-05-05 13:43 54.44389 -6.31668 36087 ft 470 kts 285°
2026-05-05 13:44 54.46202 -6.42468 36090 ft 470 kts 285°
2026-05-05 13:44 54.48003 -6.53262 36092 ft 470 kts 285°
2026-05-05 13:45 54.49795 -6.64070 36097 ft 470 kts 285°
2026-05-05 13:45 54.51577 -6.74886 36100 ft 470 kts 285°
2026-05-05 13:46 54.53349 -6.85711 36100 ft 469 kts 285°
2026-05-05 13:46 54.55097 -6.96456 36097 ft 464 kts 285°
2026-05-05 13:47 54.56813 -7.07072 36089 ft 463 kts 285°
2026-05-05 13:47 54.58531 -7.17761 36091 ft 462 kts 285°
2026-05-05 13:48 54.60236 -7.28445 36090 ft 462 kts 285°
2026-05-05 13:48 54.61934 -7.39150 36089 ft 462 kts 284°
2026-05-05 13:49 54.63622 -7.49857 36100 ft 463 kts 284°
2026-05-05 13:49 54.65301 -7.60580 36096 ft 462 kts 284°
2026-05-05 13:50 54.66968 -7.71293 36098 ft 461 kts 284°
2026-05-05 13:50 54.68614 -7.81946 36102 ft 462 kts 284°
2026-05-05 13:51 54.70263 -7.92682 36105 ft 461 kts 284°
2026-05-05 13:51 54.71900 -8.03413 36110 ft 461 kts 284°
2026-05-05 13:52 54.73529 -8.14158 36115 ft 462 kts 284°
2026-05-05 13:52 54.75147 -8.24907 36115 ft 461 kts 284°
2026-05-05 13:53 54.76755 -8.35657 36121 ft 461 kts 284°
2026-05-05 13:53 54.78354 -8.46424 36124 ft 461 kts 284°
2026-05-05 13:54 54.79943 -8.57188 36123 ft 461 kts 284°
2026-05-05 13:54 54.81522 -8.67968 36124 ft 461 kts 284°
2026-05-05 13:55 54.83091 -8.78746 36132 ft 461 kts 283°
2026-05-05 13:55 54.84649 -8.89525 36137 ft 461 kts 283°
2026-05-05 13:56 54.86198 -9.00315 36139 ft 461 kts 283°
2026-05-05 13:56 54.87738 -9.11115 36138 ft 461 kts 283°
2026-05-05 13:57 54.89267 -9.21917 36141 ft 461 kts 283°
2026-05-05 13:57 54.90788 -9.32741 36141 ft 461 kts 283°
2026-05-05 13:58 54.92299 -9.43564 36146 ft 461 kts 283°
2026-05-05 13:58 54.93790 -9.54327 36149 ft 461 kts 283°
2026-05-05 13:59 54.96022 -9.70575 36151 ft 461 kts 283°
2026-05-05 14:00 54.97995 -9.85093 36158 ft 461 kts 282°
2026-05-05 14:00 54.99698 -9.97726 36159 ft 461 kts 283°
2026-05-05 14:01 55.01855 -10.08247 36155 ft 462 kts 290°
2026-05-05 14:01 55.04203 -10.18660 36166 ft 462 kts 290°
2026-05-05 14:02 55.06530 -10.29109 36161 ft 463 kts 290°
2026-05-05 14:02 55.08858 -10.39566 36166 ft 462 kts 290°
2026-05-05 14:03 55.11166 -10.50012 36163 ft 460 kts 290°
2026-05-05 14:03 55.13461 -10.60442 36170 ft 460 kts 290°
2026-05-05 14:04 55.15747 -10.70885 36164 ft 460 kts 290°
2026-05-05 14:04 55.18024 -10.81339 36173 ft 460 kts 290°
2026-05-05 14:05 55.20288 -10.91789 36170 ft 459 kts 290°
2026-05-05 14:05 55.22540 -11.02231 36178 ft 458 kts 290°
2026-05-05 14:06 55.24777 -11.12661 36174 ft 457 kts 290°
2026-05-05 14:06 55.27009 -11.23121 36179 ft 458 kts 290°
2026-05-05 14:07 55.29234 -11.33600 36182 ft 459 kts 289°
2026-05-05 14:07 55.31439 -11.44038 36180 ft 458 kts 289°
2026-05-05 14:08 55.33656 -11.54591 36183 ft 458 kts 289°
2026-05-05 14:08 55.35850 -11.65082 36183 ft 457 kts 289°
2026-05-05 14:09 55.38031 -11.75573 36187 ft 457 kts 289°
2026-05-05 14:09 55.40202 -11.86065 36191 ft 456 kts 289°
2026-05-05 14:10 55.42346 -11.96487 36192 ft 456 kts 289°
2026-05-05 14:10 55.44496 -12.06987 36194 ft 456 kts 289°
2026-05-05 14:11 55.46640 -12.17515 36190 ft 456 kts 289°
2026-05-05 14:11 55.48771 -12.28040 36187 ft 456 kts 289°
2026-05-05 14:12 55.50902 -12.38613 36178 ft 457 kts 289°
2026-05-05 14:12 55.53021 -12.49187 36194 ft 457 kts 289°
2026-05-05 14:13 55.55132 -12.59779 36201 ft 457 kts 288°
2026-05-05 14:13 55.57232 -12.70370 36199 ft 456 kts 288°
2026-05-05 14:14 55.59318 -12.80954 36187 ft 456 kts 288°
2026-05-05 14:14 55.61398 -12.91560 36190 ft 456 kts 288°
2026-05-05 14:15 55.63470 -13.02180 36203 ft 457 kts 288°
2026-05-05 14:15 55.65533 -13.12819 36194 ft 457 kts 288°
2026-05-05 14:16 55.67573 -13.23392 36194 ft 456 kts 288°
2026-05-05 14:16 55.69614 -13.34034 36197 ft 455 kts 288°
2026-05-05 14:17 55.71645 -13.44678 36197 ft 456 kts 288°
2026-05-05 14:17 55.73669 -13.55351 36205 ft 456 kts 288°
2026-05-05 14:18 55.75685 -13.66037 36207 ft 457 kts 288°
2026-05-05 14:18 55.77695 -13.76750 36210 ft 457 kts 288°
2026-05-05 14:19 55.79698 -13.87488 36208 ft 458 kts 288°
2026-05-05 14:19 55.81691 -13.98237 36210 ft 458 kts 288°
2026-05-05 14:20 55.83674 -14.08992 36210 ft 458 kts 287°
2026-05-05 14:20 55.85646 -14.19744 36211 ft 457 kts 287°
2026-05-05 14:21 55.87608 -14.30510 36212 ft 457 kts 287°
2026-05-05 14:21 55.89558 -14.41273 36211 ft 457 kts 287°
2026-05-05 14:22 55.91492 -14.52004 36215 ft 457 kts 287°
2026-05-05 14:22 55.93436 -14.62856 36218 ft 458 kts 287°
2026-05-05 14:23 55.95365 -14.73692 36224 ft 458 kts 287°
2026-05-05 14:23 55.97283 -14.84527 36223 ft 459 kts 287°
2026-05-05 14:24 55.99204 -14.95447 36223 ft 460 kts 287°
2026-05-05 14:24 56.01386 -15.06174 36217 ft 460 kts 291°
2026-05-05 14:25 56.03777 -15.16757 36216 ft 459 kts 291°
2026-05-05 14:25 56.05740 -15.25572 36218 ft 459 kts 291°
2026-05-05 14:26 56.08109 -15.36202 36220 ft 460 kts 291°
2026-05-05 14:26 56.10465 -15.46848 36225 ft 460 kts 291°
2026-05-05 14:27 56.13193 -15.59238 36225 ft 459 kts 291°
2026-05-05 14:27 56.15150 -15.68173 36225 ft 460 kts 291°
2026-05-05 14:28 56.17481 -15.78864 36228 ft 461 kts 291°
2026-05-05 14:28 56.19804 -15.89574 36230 ft 460 kts 291°
2026-05-05 14:29 56.22114 -16.00283 36230 ft 460 kts 291°
2026-05-05 14:29 56.24415 -16.11002 36228 ft 460 kts 291°
2026-05-05 14:30 56.26710 -16.21752 36232 ft 460 kts 291°
2026-05-05 14:30 56.28994 -16.32504 36231 ft 459 kts 291°
2026-05-05 14:31 56.31267 -16.43261 36228 ft 459 kts 291°
2026-05-05 14:31 56.33512 -16.53943 36230 ft 459 kts 291°
2026-05-05 14:32 56.35764 -16.64717 36230 ft 459 kts 290°
2026-05-05 14:32 56.38008 -16.75508 36230 ft 460 kts 290°
2026-05-05 14:33 56.40247 -16.86335 36237 ft 460 kts 290°
2026-05-05 14:33 56.42477 -16.97172 36237 ft 461 kts 290°
2026-05-05 14:34 56.44694 -17.08010 36234 ft 459 kts 290°
2026-05-05 14:34 56.46898 -17.18840 36235 ft 459 kts 290°
2026-05-05 14:35 56.49092 -17.29681 36240 ft 458 kts 290°
2026-05-05 14:35 56.51273 -17.40519 36238 ft 458 kts 290°
2026-05-05 14:36 56.53447 -17.51376 36238 ft 458 kts 290°
2026-05-05 14:36 56.55610 -17.62244 36247 ft 458 kts 290°
2026-05-05 14:37 56.57762 -17.73114 36246 ft 458 kts 290°
2026-05-05 14:37 56.59909 -17.84017 36246 ft 459 kts 290°
2026-05-05 14:38 56.62044 -17.94924 36247 ft 459 kts 290°
2026-05-05 14:38 56.64174 -18.05864 36249 ft 460 kts 290°
2026-05-05 14:39 56.66296 -18.16825 36251 ft 460 kts 290°
2026-05-05 14:39 56.68408 -18.27797 36250 ft 460 kts 290°
2026-05-05 14:40 56.70496 -18.38708 36252 ft 460 kts 290°
2026-05-05 14:40 56.72588 -18.49697 36253 ft 460 kts 290°
2026-05-05 14:41 56.74675 -18.60729 36252 ft 461 kts 290°
2026-05-05 14:41 56.76757 -18.71792 36256 ft 462 kts 290°
2026-05-05 14:42 56.78832 -18.82887 36257 ft 462 kts 290°
2026-05-05 14:42 56.80895 -18.93982 36256 ft 462 kts 290°
2026-05-05 14:43 56.82948 -19.05091 36253 ft 462 kts 290°
2026-05-05 14:43 56.84997 -19.16238 36256 ft 463 kts 290°
2026-05-05 14:44 56.87034 -19.27391 36255 ft 463 kts 290°
2026-05-05 14:44 56.89062 -19.38558 36253 ft 463 kts 290°
2026-05-05 14:45 56.91080 -19.49742 36256 ft 463 kts 290°
2026-05-05 14:45 56.93089 -19.60937 36275 ft 463 kts 290°
2026-05-05 14:46 56.95087 -19.72145 36266 ft 463 kts 290°
2026-05-05 14:46 56.97061 -19.83282 36270 ft 463 kts 290°
2026-05-05 14:47 56.99041 -19.94519 36267 ft 463 kts 290°
2026-05-05 14:47 57.00247 -20.06124 36276 ft 467 kts 276°
2026-05-05 14:48 57.00709 -20.18036 36279 ft 468 kts 276°
2026-05-05 14:48 57.01162 -20.29948 36281 ft 469 kts 277°
2026-05-05 14:49 57.01605 -20.41881 36273 ft 469 kts 276°
2026-05-05 14:49 57.02036 -20.53825 36274 ft 469 kts 276°
2026-05-05 14:50 57.02455 -20.65761 36270 ft 468 kts 276°
2026-05-05 14:50 57.02863 -20.77694 36273 ft 468 kts 276°
2026-05-05 14:51 57.03260 -20.89621 36266 ft 468 kts 276°
2026-05-05 14:51 57.03645 -21.01564 36268 ft 469 kts 276°
2026-05-05 14:52 57.04020 -21.13530 36267 ft 470 kts 276°
2026-05-05 14:52 57.04381 -21.25437 36265 ft 470 kts 276°
2026-05-05 14:53 57.04733 -21.37405 36268 ft 469 kts 276°
2026-05-05 14:53 57.05074 -21.49377 36269 ft 469 kts 276°
2026-05-05 14:54 57.05403 -21.61344 36270 ft 469 kts 276°
2026-05-05 14:54 57.05721 -21.73327 36271 ft 469 kts 276°
2026-05-05 14:55 57.06027 -21.85309 36264 ft 470 kts 276°
2026-05-05 14:55 57.06323 -21.97313 36269 ft 471 kts 276°
2026-05-05 14:56 57.06606 -22.09326 36266 ft 470 kts 276°
2026-05-05 14:56 57.06879 -22.21328 36266 ft 470 kts 276°
2026-05-05 14:57 57.07139 -22.33325 36263 ft 469 kts 276°
2026-05-05 14:57 57.07388 -22.45301 36267 ft 469 kts 276°
2026-05-05 14:58 57.07626 -22.57296 36265 ft 470 kts 276°
2026-05-05 14:58 57.07852 -22.69285 36274 ft 470 kts 276°
2026-05-05 14:59 57.08067 -22.81296 36270 ft 470 kts 276°
2026-05-05 14:59 57.08271 -22.93328 36267 ft 471 kts 276°
2026-05-05 15:00 57.08431 -23.03319 36264 ft 470 kts 276°
2026-05-05 15:00 57.08643 -23.17364 36264 ft 470 kts 276°
2026-05-05 15:01 57.08813 -23.29395 36277 ft 471 kts 276°
2026-05-05 15:01 57.08971 -23.41446 36269 ft 472 kts 276°
2026-05-05 15:02 57.09117 -23.53526 36271 ft 473 kts 276°
2026-05-05 15:02 57.09252 -23.65614 36271 ft 472 kts 276°
2026-05-05 15:03 57.09376 -23.77686 36269 ft 472 kts 276°
2026-05-05 15:03 57.09487 -23.89689 36273 ft 473 kts 276°
2026-05-05 15:04 57.09587 -24.01779 36266 ft 473 kts 275°
2026-05-05 15:04 57.09676 -24.13868 36263 ft 473 kts 275°
2026-05-05 15:05 57.09787 -24.32012 36265 ft 473 kts 275°
2026-05-05 15:06 57.09847 -24.44127 36265 ft 473 kts 275°
2026-05-05 15:06 57.09895 -24.56213 36263 ft 472 kts 275°
2026-05-05 15:07 57.09931 -24.68290 36265 ft 472 kts 275°
2026-05-05 15:07 57.09956 -24.80373 36267 ft 472 kts 275°
2026-05-05 15:08 57.09969 -24.92446 36265 ft 472 kts 275°
2026-05-05 15:08 57.09970 -25.04512 36270 ft 472 kts 275°
2026-05-05 15:09 57.09960 -25.16485 36264 ft 471 kts 275°
2026-05-05 15:09 57.09939 -25.28521 36271 ft 471 kts 275°
2026-05-05 15:10 57.09906 -25.40587 36270 ft 472 kts 275°
2026-05-05 15:10 57.09861 -25.52674 36267 ft 473 kts 274°
2026-05-05 15:11 57.09804 -25.64768 36268 ft 472 kts 274°
2026-05-05 15:11 57.09736 -25.76820 36276 ft 470 kts 274°
2026-05-05 15:12 57.09657 -25.88870 36273 ft 470 kts 274°
2026-05-05 15:12 57.09566 -26.00907 36276 ft 471 kts 274°
2026-05-05 15:13 57.09464 -26.12945 36274 ft 471 kts 274°
2026-05-05 15:13 57.09350 -26.24916 36267 ft 471 kts 274°
2026-05-05 15:14 57.09225 -26.36977 36274 ft 472 kts 274°
2026-05-05 15:14 57.09087 -26.49050 36274 ft 472 kts 274°
2026-05-05 15:15 57.08938 -26.61092 36281 ft 471 kts 273°
2026-05-05 15:15 57.08778 -26.73138 36277 ft 471 kts 273°
2026-05-05 15:16 57.08636 -26.83136 36271 ft 470 kts 273°
2026-05-05 15:16 57.08455 -26.95168 36266 ft 471 kts 273°
2026-05-05 15:17 57.08262 -27.07209 36276 ft 471 kts 273°
2026-05-05 15:17 57.08057 -27.19252 36273 ft 471 kts 272°
2026-05-05 15:18 57.07841 -27.31275 36277 ft 469 kts 272°
2026-05-05 15:18 57.07616 -27.43176 36274 ft 464 kts 272°
2026-05-05 15:19 57.07382 -27.55022 36269 ft 464 kts 272°
2026-05-05 15:19 57.07137 -27.66797 36271 ft 464 kts 272°
2026-05-05 15:20 57.06879 -27.78654 36275 ft 465 kts 272°
2026-05-05 15:20 57.06610 -27.90518 36274 ft 464 kts 272°
2026-05-05 15:21 57.06330 -28.02371 36276 ft 463 kts 272°
2026-05-05 15:21 57.06040 -28.14182 36271 ft 463 kts 271°
2026-05-05 15:22 57.05738 -28.26017 36273 ft 464 kts 271°
2026-05-05 15:22 57.05426 -28.37803 36268 ft 464 kts 271°
2026-05-05 15:23 57.05102 -28.49633 36270 ft 464 kts 271°
2026-05-05 15:23 57.04765 -28.61474 36273 ft 464 kts 271°
2026-05-05 15:24 57.04419 -28.73303 36280 ft 463 kts 271°
2026-05-05 15:24 57.04062 -28.85097 36270 ft 463 kts 271°
2026-05-05 15:25 57.03693 -28.96918 36272 ft 464 kts 270°
2026-05-05 15:25 57.03312 -29.08767 36274 ft 465 kts 270°
2026-05-05 15:26 57.02922 -29.20539 36274 ft 465 kts 270°
2026-05-05 15:26 57.02519 -29.32381 36275 ft 464 kts 270°
2026-05-05 15:27 57.02106 -29.44196 36277 ft 464 kts 270°
2026-05-05 15:27 57.01681 -29.56012 36271 ft 464 kts 270°
2026-05-05 15:28 57.01245 -29.67841 36275 ft 465 kts 270°
2026-05-05 15:28 57.00795 -29.79711 36279 ft 466 kts 269°
2026-05-05 15:29 57.00335 -29.91570 36277 ft 465 kts 269°
2026-05-05 15:29 57.00133 -30.03370 36306 ft 460 kts 277°
2026-05-05 15:30 57.00596 -30.15089 36288 ft 461 kts 277°
2026-05-05 15:30 57.01045 -30.26823 36287 ft 461 kts 277°
2026-05-05 15:31 57.01483 -30.38570 36282 ft 462 kts 277°
2026-05-05 15:31 57.01911 -30.50317 36279 ft 461 kts 277°
2026-05-05 15:32 57.02327 -30.62067 36279 ft 462 kts 276°
2026-05-05 15:32 57.02733 -30.73842 36279 ft 463 kts 276°
2026-05-05 15:33 57.03129 -30.85639 36276 ft 463 kts 276°
2026-05-05 15:33 57.03512 -30.97377 36277 ft 463 kts 276°
2026-05-05 15:34 57.03886 -31.09208 36274 ft 464 kts 276°
2026-05-05 15:34 57.04250 -31.21063 36279 ft 464 kts 276°
2026-05-05 15:35 57.04602 -31.32906 36277 ft 464 kts 275°
2026-05-05 15:35 57.04941 -31.44655 36275 ft 463 kts 275°
2026-05-05 15:36 57.05271 -31.56486 36274 ft 464 kts 275°
2026-05-05 15:36 57.05590 -31.68350 36275 ft 466 kts 275°
2026-05-05 15:37 57.05899 -31.80247 36277 ft 467 kts 275°
2026-05-05 15:37 57.06197 -31.92160 36279 ft 466 kts 275°
2026-05-05 15:38 57.06483 -32.04051 36271 ft 466 kts 274°
2026-05-05 15:38 57.06758 -32.15919 36273 ft 464 kts 274°
2026-05-05 15:39 57.07021 -32.27792 36268 ft 464 kts 274°
2026-05-05 15:39 57.07273 -32.39650 36268 ft 465 kts 274°
2026-05-05 15:40 57.07513 -32.51520 36269 ft 465 kts 274°
2026-05-05 15:40 57.07743 -32.63409 36268 ft 465 kts 273°
2026-05-05 15:41 57.07961 -32.75309 36272 ft 466 kts 273°
2026-05-05 15:41 57.08169 -32.87234 36267 ft 466 kts 273°
2026-05-05 15:42 57.08364 -32.99082 36264 ft 466 kts 273°
2026-05-05 15:42 57.08550 -33.11012 36265 ft 466 kts 272°
2026-05-05 15:43 57.08723 -33.22926 36260 ft 466 kts 272°
2026-05-05 15:43 57.08886 -33.34835 36270 ft 465 kts 272°
2026-05-05 15:44 57.09038 -33.46768 36275 ft 467 kts 272°
2026-05-05 15:44 57.09176 -33.58720 36273 ft 468 kts 272°
2026-05-05 15:45 57.09305 -33.70610 36266 ft 468 kts 272°
2026-05-05 15:45 57.09423 -33.82594 36263 ft 468 kts 272°
2026-05-05 15:46 57.09529 -33.94571 36260 ft 469 kts 271°
2026-05-05 15:46 57.09624 -34.06576 36264 ft 470 kts 271°
2026-05-05 15:47 57.09708 -34.18587 36257 ft 470 kts 271°
2026-05-05 15:47 57.09780 -34.30619 36260 ft 471 kts 271°
2026-05-05 15:48 57.09841 -34.42688 36248 ft 472 kts 271°
2026-05-05 15:48 57.09890 -34.54790 36249 ft 474 kts 270°
2026-05-05 15:49 57.09928 -34.66946 36255 ft 475 kts 270°
2026-05-05 15:49 57.09954 -34.79039 36251 ft 476 kts 270°
2026-05-05 15:50 57.09969 -34.91232 36255 ft 478 kts 270°
2026-05-05 15:50 57.09971 -35.03465 36258 ft 478 kts 270°
2026-05-05 15:51 57.09962 -35.15718 36257 ft 479 kts 270°
2026-05-05 15:51 57.09941 -35.27981 36250 ft 480 kts 269°
2026-05-05 15:52 57.09907 -35.40244 36246 ft 479 kts 269°
2026-05-05 15:52 57.09862 -35.52514 36244 ft 480 kts 269°
2026-05-05 15:53 57.09804 -35.64803 36242 ft 480 kts 269°
2026-05-05 15:53 57.09735 -35.77087 36241 ft 480 kts 269°
2026-05-05 15:54 57.09654 -35.89355 36237 ft 480 kts 269°
2026-05-05 15:54 57.09560 -36.01641 36237 ft 480 kts 268°
2026-05-05 15:55 57.09455 -36.13955 36235 ft 482 kts 268°
2026-05-05 15:55 57.09337 -36.26288 36234 ft 482 kts 268°
2026-05-05 15:56 57.09207 -36.38630 36234 ft 483 kts 268°
2026-05-05 15:56 57.09064 -36.50990 36232 ft 484 kts 268°
2026-05-05 15:57 57.08910 -36.63276 36232 ft 484 kts 268°
2026-05-05 15:57 57.08743 -36.75654 36227 ft 485 kts 267°
2026-05-05 15:58 57.08563 -36.88077 36223 ft 486 kts 267°
2026-05-05 15:58 57.08372 -37.00477 36218 ft 485 kts 267°
2026-05-05 15:59 57.08167 -37.12888 36215 ft 486 kts 266°
2026-05-05 15:59 57.07950 -37.25338 36212 ft 487 kts 266°
2026-05-05 16:00 57.07720 -37.37793 36212 ft 487 kts 266°
2026-05-05 16:00 57.07478 -37.50244 36209 ft 488 kts 266°
2026-05-05 16:01 57.07223 -37.62711 36203 ft 488 kts 266°
2026-05-05 16:01 57.06957 -37.75118 36199 ft 490 kts 265°
2026-05-05 16:02 57.06677 -37.87632 36200 ft 490 kts 265°
2026-05-05 16:02 57.06384 -38.00126 36188 ft 489 kts 265°
2026-05-05 16:03 57.06079 -38.12619 36186 ft 488 kts 265°
2026-05-05 16:03 57.05762 -38.25092 36183 ft 488 kts 265°
2026-05-05 16:04 57.05434 -38.37502 36183 ft 489 kts 265°
2026-05-05 16:04 57.05092 -38.49989 36175 ft 489 kts 265°
2026-05-05 16:05 57.04798 -38.60370 36173 ft 490 kts 264°
2026-05-05 16:05 57.04432 -38.72876 36170 ft 491 kts 264°
2026-05-05 16:06 57.04054 -38.85382 36163 ft 490 kts 264°
2026-05-05 16:06 57.03662 -38.97886 36155 ft 490 kts 264°
2026-05-05 16:07 57.03259 -39.10403 36155 ft 491 kts 264°
2026-05-05 16:07 57.02843 -39.22913 36144 ft 491 kts 264°
2026-05-05 16:08 57.02414 -39.35435 36141 ft 491 kts 264°
2026-05-05 16:08 57.01972 -39.47955 36137 ft 491 kts 264°
2026-05-05 16:09 57.01519 -39.60460 36137 ft 492 kts 264°
2026-05-05 16:09 57.01054 -39.72911 36129 ft 492 kts 264°
2026-05-05 16:10 57.00574 -39.85459 36122 ft 493 kts 263°
2026-05-05 16:10 57.00080 -39.98019 36116 ft 493 kts 263°
2026-05-05 16:11 56.99367 -40.10510 36112 ft 492 kts 262°
2026-05-05 16:12 56.97887 -40.35460 36103 ft 493 kts 261°
2026-05-05 16:13 56.95966 -40.66530 36087 ft 492 kts 261°
2026-05-05 16:13 56.95171 -40.78999 36080 ft 492 kts 261°
2026-05-05 16:14 56.93542 -41.03897 36076 ft 492 kts 261°
2026-05-05 16:15 56.91865 -41.28760 36058 ft 491 kts 260°
2026-05-05 16:16 56.90144 -41.53520 36054 ft 490 kts 260°
2026-05-05 16:17 56.88823 -41.72049 36052 ft 489 kts 260°
2026-05-05 16:18 56.87480 -41.90494 36043 ft 489 kts 260°
2026-05-05 16:19 56.86110 -42.08930 36042 ft 488 kts 259°
2026-05-05 16:19 56.84713 -42.27346 36037 ft 487 kts 259°
2026-05-05 16:20 56.82812 -42.51829 36029 ft 486 kts 259°
2026-05-05 16:22 56.80376 -42.82310 36019 ft 485 kts 258°
2026-05-05 16:23 56.78384 -43.06531 36016 ft 484 kts 258°
2026-05-05 16:23 56.76857 -43.24728 36007 ft 483 kts 258°
2026-05-05 16:24 56.75824 -43.36835 36000 ft 483 kts 258°
2026-05-05 16:25 56.74256 -43.54957 35999 ft 483 kts 258°
2026-05-05 16:25 56.72663 -43.73056 35992 ft 482 kts 258°
2026-05-05 16:26 56.70506 -43.97061 35980 ft 481 kts 257°
2026-05-05 16:27 56.69410 -44.09059 35974 ft 480 kts 257°
2026-05-05 16:27 56.68307 -44.21005 35973 ft 479 kts 257°
2026-05-05 16:28 56.67191 -44.32949 35963 ft 479 kts 257°
2026-05-05 16:28 56.66067 -44.44873 35965 ft 478 kts 257°
2026-05-05 16:29 56.64929 -44.56790 35952 ft 478 kts 257°
2026-05-05 16:29 56.63792 -44.68590 35954 ft 477 kts 257°
2026-05-05 16:30 56.62635 -44.80464 35942 ft 476 kts 257°
2026-05-05 16:30 56.61472 -44.92288 35946 ft 476 kts 257°
2026-05-05 16:31 56.60296 -45.04113 35933 ft 476 kts 257°
2026-05-05 16:31 56.59110 -45.15920 35931 ft 476 kts 257°
2026-05-05 16:32 56.57912 -45.27722 35922 ft 475 kts 256°
2026-05-05 16:32 56.56708 -45.39476 35919 ft 474 kts 256°
2026-05-05 16:33 56.55491 -45.51234 35910 ft 474 kts 256°
2026-05-05 16:33 56.54267 -45.62951 35906 ft 473 kts 256°
2026-05-05 16:34 56.53032 -45.74658 35896 ft 472 kts 256°
2026-05-05 16:34 56.51792 -45.86312 35889 ft 471 kts 256°
2026-05-05 16:35 56.50539 -45.97960 35890 ft 470 kts 256°
2026-05-05 16:35 56.49280 -46.09567 35886 ft 470 kts 256°
2026-05-05 16:36 56.48009 -46.21171 35870 ft 469 kts 256°
2026-05-05 16:36 56.46731 -46.32732 35869 ft 469 kts 256°
2026-05-05 16:37 56.45442 -46.44293 35867 ft 468 kts 256°
2026-05-05 16:37 56.44145 -46.55819 35858 ft 468 kts 256°
2026-05-05 16:38 56.42847 -46.67255 35849 ft 467 kts 255°
2026-05-05 16:38 56.41533 -46.78729 35844 ft 466 kts 255°
2026-05-05 16:39 56.40209 -46.90190 35847 ft 466 kts 255°
2026-05-05 16:39 56.38875 -47.01640 35838 ft 466 kts 255°
2026-05-05 16:40 56.37531 -47.13076 35832 ft 465 kts 255°
2026-05-05 16:40 56.36180 -47.24468 35829 ft 464 kts 255°
2026-05-05 16:41 56.34819 -47.35858 35817 ft 464 kts 255°
2026-05-05 16:41 56.33450 -47.47214 35814 ft 463 kts 255°
2026-05-05 16:42 56.32073 -47.58548 35796 ft 462 kts 254°
2026-05-05 16:42 56.30688 -47.69846 35797 ft 461 kts 254°
2026-05-05 16:43 56.29304 -47.81050 35790 ft 461 kts 254°
2026-05-05 16:43 56.27904 -47.92297 35781 ft 460 kts 254°
2026-05-05 16:44 56.26495 -48.03515 35773 ft 459 kts 254°
2026-05-05 16:44 56.25079 -48.14713 35771 ft 459 kts 253°
2026-05-05 16:45 56.23652 -48.25898 35760 ft 459 kts 253°
2026-05-05 16:45 56.22218 -48.37061 35757 ft 458 kts 253°
2026-05-05 16:46 56.20773 -48.48212 35747 ft 457 kts 253°
2026-05-05 16:46 56.19322 -48.59336 35744 ft 456 kts 253°
2026-05-05 16:47 56.17862 -48.70435 35737 ft 456 kts 253°
2026-05-05 16:47 56.16402 -48.81455 35735 ft 457 kts 252°
2026-05-05 16:48 56.14922 -48.92547 35724 ft 457 kts 252°
2026-05-05 16:48 56.13433 -49.03614 35721 ft 456 kts 252°
2026-05-05 16:49 56.11935 -49.14669 35714 ft 455 kts 252°
2026-05-05 16:49 56.10430 -49.25698 35712 ft 456 kts 252°
2026-05-05 16:50 56.08914 -49.36725 35699 ft 456 kts 252°
2026-05-05 16:50 56.07397 -49.47679 35698 ft 456 kts 251°
2026-05-05 16:51 56.05859 -49.58705 35693 ft 456 kts 251°
2026-05-05 16:51 56.04314 -49.69706 35692 ft 457 kts 251°
2026-05-05 16:52 56.02753 -49.80734 35676 ft 457 kts 251°
2026-05-05 16:52 56.01187 -49.91729 35674 ft 457 kts 251°
2026-05-05 16:53 55.99385 -50.02570 35694 ft 451 kts 242°
2026-05-05 16:53 55.96905 -50.12872 35675 ft 452 kts 242°
2026-05-05 16:54 55.94830 -50.21453 35660 ft 452 kts 242°
2026-05-05 16:54 55.92333 -50.31750 35659 ft 452 kts 242°
2026-05-05 16:55 55.89831 -50.42004 35646 ft 451 kts 242°
2026-05-05 16:55 55.87315 -50.52277 35648 ft 453 kts 241°
2026-05-05 16:56 55.84781 -50.62569 35638 ft 453 kts 241°
2026-05-05 16:56 55.82258 -50.72770 35641 ft 454 kts 241°
2026-05-05 16:57 55.79705 -50.83044 35622 ft 455 kts 241°
2026-05-05 16:57 55.77146 -50.93300 35623 ft 454 kts 240°
2026-05-05 16:58 55.74574 -51.03553 35613 ft 455 kts 240°
2026-05-05 16:58 55.71990 -51.13810 35618 ft 455 kts 240°
2026-05-05 16:59 55.69397 -51.24052 35606 ft 455 kts 240°
2026-05-05 16:59 55.66795 -51.34289 35603 ft 455 kts 240°
2026-05-05 17:00 55.64185 -51.44505 35591 ft 455 kts 239°
2026-05-05 17:00 55.61583 -51.54644 35596 ft 456 kts 239°
2026-05-05 17:01 55.58951 -51.64848 35563 ft 457 kts 239°
2026-05-05 17:01 55.56316 -51.75029 35588 ft 455 kts 239°
2026-05-05 17:02 55.53665 -51.85212 35585 ft 458 kts 239°
2026-05-05 17:02 55.50994 -51.95437 35657 ft 461 kts 239°
2026-05-05 17:03 55.49638 -52.00600 35797 ft 466 kts 239°
2026-05-05 17:03 55.48268 -52.05812 35952 ft 470 kts 239°
2026-05-05 17:03 55.46888 -52.11057 36078 ft 472 kts 239°
2026-05-05 17:03 55.45504 -52.16305 36222 ft 473 kts 239°
2026-05-05 17:04 55.44115 -52.21553 36352 ft 473 kts 239°
2026-05-05 17:04 55.42721 -52.26802 36500 ft 473 kts 239°
2026-05-05 17:04 55.41324 -52.32054 36642 ft 474 kts 239°
2026-05-05 17:04 55.39924 -52.37311 36763 ft 474 kts 239°
2026-05-05 17:05 55.38526 -52.42548 36892 ft 473 kts 239°
2026-05-05 17:05 55.37125 -52.47779 37032 ft 472 kts 239°
2026-05-05 17:05 55.35722 -52.53002 37171 ft 473 kts 239°
2026-05-05 17:05 55.34319 -52.58218 37296 ft 472 kts 239°
2026-05-05 17:06 55.32916 -52.63425 37430 ft 472 kts 239°
2026-05-05 17:06 55.31508 -52.68635 37547 ft 473 kts 239°
2026-05-05 17:06 55.28672 -52.79095 37538 ft 473 kts 239°
2026-05-05 17:07 55.25863 -52.89409 37545 ft 472 kts 238°
2026-05-05 17:07 55.23023 -52.99785 37536 ft 472 kts 238°
2026-05-05 17:08 55.20173 -53.10153 37536 ft 473 kts 238°
2026-05-05 17:08 55.17304 -53.20545 37536 ft 474 kts 238°
2026-05-05 17:09 55.14423 -53.30935 37511 ft 475 kts 238°
2026-05-05 17:09 55.11524 -53.41337 37519 ft 476 kts 238°
2026-05-05 17:10 55.08614 -53.51737 37518 ft 478 kts 238°
2026-05-05 17:10 55.05682 -53.62166 37525 ft 479 kts 238°
2026-05-05 17:11 55.02737 -53.72595 37513 ft 480 kts 238°
2026-05-05 17:11 54.99777 -53.83031 37521 ft 480 kts 238°
2026-05-05 17:12 54.96805 -53.93460 37522 ft 481 kts 238°
2026-05-05 17:12 54.93819 -54.03894 37513 ft 482 kts 238°
2026-05-05 17:13 54.90815 -54.14342 37503 ft 484 kts 238°
2026-05-05 17:13 54.87793 -54.24808 37510 ft 485 kts 238°
2026-05-05 17:14 54.84758 -54.35268 37510 ft 485 kts 238°
2026-05-05 17:14 54.81713 -54.45717 37512 ft 486 kts 238°
2026-05-05 17:15 54.78654 -54.56168 37504 ft 487 kts 238°
2026-05-05 17:15 54.75602 -54.66549 37511 ft 487 kts 238°
2026-05-05 17:16 54.72520 -54.76986 37501 ft 488 kts 238°
2026-05-05 17:16 54.69423 -54.87431 37512 ft 489 kts 238°
2026-05-05 17:17 54.66305 -54.97894 37494 ft 490 kts 238°
2026-05-05 17:17 54.63174 -55.08361 37501 ft 490 kts 238°
2026-05-05 17:18 54.60032 -55.18814 37505 ft 491 kts 238°
2026-05-05 17:18 54.56880 -55.29255 37521 ft 491 kts 238°
2026-05-05 17:19 54.53716 -55.39690 37507 ft 492 kts 238°
2026-05-05 17:19 54.50537 -55.50129 37514 ft 492 kts 238°
2026-05-05 17:20 54.47371 -55.60478 37510 ft 493 kts 238°
2026-05-05 17:20 54.44170 -55.70898 37511 ft 493 kts 237°
2026-05-05 17:21 54.40956 -55.81312 37507 ft 494 kts 238°
2026-05-05 17:22 54.36119 -55.96907 37506 ft 494 kts 237°
2026-05-05 17:22 54.32874 -56.07307 37493 ft 494 kts 237°
2026-05-05 17:23 54.29648 -56.17607 37503 ft 494 kts 237°
2026-05-05 17:23 54.26390 -56.27961 37511 ft 494 kts 237°
2026-05-05 17:24 54.23119 -56.38315 37504 ft 495 kts 237°
2026-05-05 17:24 54.21476 -56.43476 37616 ft 494 kts 241°
2026-05-05 17:24 54.19844 -56.48631 37496 ft 491 kts 241°
2026-05-05 17:25 54.16597 -56.58824 37501 ft 488 kts 241°
2026-05-05 17:25 54.13337 -56.69004 37500 ft 489 kts 241°
2026-05-05 17:26 54.10070 -56.79175 37501 ft 489 kts 241°
2026-05-05 17:26 54.06793 -56.89325 37505 ft 489 kts 241°
2026-05-05 17:27 54.03510 -56.99459 37501 ft 489 kts 241°
2026-05-05 17:27 54.00285 -57.09649 37496 ft 488 kts 242°
2026-05-05 17:28 53.97081 -57.19833 37488 ft 489 kts 241°
2026-05-05 17:28 53.93850 -57.29962 37480 ft 487 kts 242°
2026-05-05 17:29 53.90636 -57.40070 37477 ft 485 kts 242°
2026-05-05 17:29 53.87435 -57.50043 37473 ft 483 kts 242°
2026-05-05 17:30 53.84225 -57.60039 37472 ft 482 kts 242°
2026-05-05 17:30 53.81005 -57.70002 37468 ft 482 kts 242°
2026-05-05 17:31 53.77782 -57.79944 37472 ft 482 kts 242°
2026-05-05 17:31 53.74552 -57.89865 37473 ft 481 kts 242°
2026-05-05 17:32 53.71320 -57.99753 37475 ft 481 kts 242°
2026-05-05 17:32 53.68082 -58.09615 37478 ft 480 kts 242°
2026-05-05 17:33 53.64837 -58.19464 37484 ft 480 kts 242°
2026-05-05 17:33 53.61585 -58.29290 37485 ft 479 kts 241°
2026-05-05 17:34 53.58353 -58.39020 37486 ft 479 kts 242°
2026-05-05 17:34 53.55094 -58.48791 37488 ft 478 kts 241°
2026-05-05 17:35 53.51830 -58.58538 37494 ft 478 kts 241°
2026-05-05 17:35 53.48557 -58.68274 37499 ft 479 kts 241°
2026-05-05 17:36 53.45271 -58.78010 37502 ft 479 kts 241°
2026-05-05 17:36 53.41978 -58.87726 37508 ft 479 kts 241°
2026-05-05 17:37 53.38677 -58.97430 37510 ft 479 kts 241°
2026-05-05 17:37 53.35368 -59.07119 37506 ft 479 kts 241°
2026-05-05 17:38 53.32054 -59.16787 37514 ft 479 kts 241°
2026-05-05 17:38 53.28729 -59.26443 37521 ft 479 kts 241°
2026-05-05 17:39 53.25423 -59.36010 37523 ft 479 kts 241°
2026-05-05 17:39 53.22106 -59.45573 37524 ft 478 kts 241°
2026-05-05 17:40 53.18743 -59.55231 37525 ft 478 kts 241°
2026-05-05 17:40 53.15395 -59.64807 37536 ft 478 kts 241°
2026-05-05 17:41 53.12041 -59.74365 37534 ft 478 kts 240°
2026-05-05 17:41 53.08682 -59.83899 37538 ft 477 kts 240°
2026-05-05 17:42 53.05886 -59.91809 37541 ft 477 kts 240°
2026-05-05 17:42 53.01965 -60.02857 37546 ft 477 kts 240°
2026-05-05 17:43 52.98586 -60.12339 37553 ft 477 kts 240°
2026-05-05 17:43 52.95749 -60.20273 37548 ft 477 kts 240°
2026-05-05 17:44 52.92356 -60.29728 37545 ft 477 kts 240°
2026-05-05 17:44 52.88960 -60.39158 37547 ft 477 kts 240°
2026-05-05 17:45 52.85577 -60.48513 37554 ft 476 kts 240°
2026-05-05 17:45 52.82166 -60.57914 37550 ft 476 kts 240°
2026-05-05 17:46 52.78749 -60.67296 37559 ft 476 kts 240°
2026-05-05 17:46 52.75332 -60.76641 37559 ft 475 kts 240°
2026-05-05 17:47 52.71915 -60.85952 37559 ft 473 kts 240°
2026-05-05 17:47 52.68500 -60.95222 37560 ft 472 kts 240°
2026-05-05 17:48 52.65087 -61.04456 37553 ft 471 kts 240°
2026-05-05 17:48 52.61696 -61.13595 37549 ft 471 kts 240°
2026-05-05 17:49 52.58274 -61.22785 37555 ft 471 kts 240°
2026-05-05 17:49 52.54848 -61.31952 37555 ft 470 kts 239°
2026-05-05 17:50 52.51419 -61.41093 37560 ft 470 kts 239°
2026-05-05 17:50 52.47988 -61.50206 37562 ft 469 kts 239°
2026-05-05 17:51 52.44553 -61.59300 37558 ft 469 kts 239°
2026-05-05 17:51 52.41111 -61.68378 37559 ft 469 kts 239°
2026-05-05 17:52 52.37660 -61.77446 37565 ft 469 kts 239°
2026-05-05 17:52 52.34199 -61.86509 37561 ft 469 kts 239°
2026-05-05 17:53 52.30736 -61.95545 37565 ft 469 kts 239°
2026-05-05 17:53 52.27284 -62.04519 37565 ft 469 kts 239°
2026-05-05 17:54 52.23805 -62.13533 37565 ft 469 kts 239°
2026-05-05 17:54 52.20320 -62.22531 37567 ft 469 kts 239°
2026-05-05 17:55 52.16829 -62.31513 37575 ft 468 kts 239°
2026-05-05 17:55 52.13336 -62.40468 37575 ft 468 kts 239°
2026-05-05 17:56 52.09838 -62.49404 37570 ft 468 kts 239°
2026-05-05 17:56 52.06341 -62.58305 37576 ft 467 kts 239°
2026-05-05 17:57 52.02838 -62.67192 37573 ft 466 kts 239°
2026-05-05 17:57 51.99339 -62.76037 37581 ft 465 kts 239°
2026-05-05 17:58 51.95839 -62.84857 37580 ft 465 kts 239°
2026-05-05 17:58 51.92335 -62.93654 37584 ft 464 kts 239°
2026-05-05 17:59 51.88826 -63.02435 37581 ft 465 kts 238°
2026-05-05 17:59 51.85304 -63.11216 37583 ft 465 kts 238°
2026-05-05 18:00 51.81769 -63.20002 37582 ft 466 kts 238°
2026-05-05 18:00 51.78255 -63.28704 37588 ft 465 kts 238°
2026-05-05 18:01 51.74718 -63.37436 37588 ft 464 kts 238°
2026-05-05 18:01 51.71175 -63.46149 37592 ft 464 kts 238°
2026-05-05 18:02 51.67627 -63.54847 37599 ft 464 kts 238°
2026-05-05 18:02 51.64086 -63.63499 37604 ft 462 kts 238°
2026-05-05 18:03 51.60544 -63.72125 37600 ft 461 kts 238°
2026-05-05 18:03 51.57007 -63.80709 37598 ft 459 kts 238°
2026-05-05 18:04 51.53482 -63.89237 37599 ft 457 kts 238°
2026-05-05 18:04 51.49963 -63.97721 37594 ft 454 kts 238°
2026-05-05 18:05 51.46233 -64.05869 37596 ft 454 kts 232°
2026-05-05 18:05 51.42220 -64.13646 37605 ft 451 kts 232°
2026-05-05 18:06 51.38224 -64.21369 37603 ft 450 kts 232°
2026-05-05 18:06 51.34232 -64.29058 37599 ft 449 kts 232°
2026-05-05 18:07 51.30261 -64.36687 37597 ft 448 kts 232°
2026-05-05 18:07 51.26278 -64.44313 37598 ft 447 kts 232°
2026-05-05 18:08 51.22292 -64.51926 37600 ft 446 kts 232°
2026-05-05 18:08 51.18317 -64.59493 37601 ft 445 kts 232°
2026-05-05 18:09 51.14339 -64.67043 37600 ft 445 kts 231°
2026-05-05 18:09 51.10364 -64.74566 37604 ft 444 kts 231°
2026-05-05 18:10 51.06384 -64.82076 37608 ft 443 kts 231°
2026-05-05 18:10 51.02406 -64.89561 37612 ft 443 kts 231°
2026-05-05 18:11 50.98450 -64.96984 37608 ft 442 kts 231°
2026-05-05 18:11 50.94464 -65.04437 37602 ft 442 kts 231°
2026-05-05 18:12 50.90478 -65.11874 37606 ft 443 kts 231°
2026-05-05 18:12 50.86485 -65.19298 37616 ft 443 kts 231°
2026-05-05 18:13 50.82488 -65.26712 37613 ft 443 kts 231°
2026-05-05 18:13 50.78494 -65.34096 37620 ft 442 kts 231°
2026-05-05 18:14 50.74483 -65.41492 37630 ft 443 kts 231°
2026-05-05 18:14 50.70459 -65.48890 37620 ft 443 kts 231°
2026-05-05 18:15 50.66439 -65.56259 37622 ft 443 kts 231°
2026-05-05 18:15 50.62409 -65.63625 37618 ft 443 kts 231°
2026-05-05 18:16 50.58383 -65.70963 37616 ft 443 kts 230°
2026-05-05 18:16 50.54353 -65.78289 37630 ft 443 kts 230°
2026-05-05 18:17 50.50320 -65.85598 37630 ft 442 kts 230°
2026-05-05 18:17 50.46289 -65.92883 37629 ft 441 kts 230°
2026-05-05 18:18 50.42262 -66.00139 37615 ft 441 kts 230°
2026-05-05 18:18 50.38236 -66.07374 37609 ft 440 kts 230°
2026-05-05 18:19 50.34211 -66.14587 37599 ft 439 kts 230°
2026-05-05 18:19 50.30185 -66.21781 37591 ft 439 kts 230°
2026-05-05 18:20 50.26157 -66.28959 37599 ft 439 kts 230°
2026-05-05 18:20 50.22132 -66.36111 37590 ft 438 kts 230°
2026-05-05 18:21 50.18108 -66.43244 37595 ft 437 kts 230°
2026-05-05 18:21 50.14085 -66.50353 37602 ft 437 kts 230°
2026-05-05 18:22 50.10056 -66.57452 37597 ft 437 kts 230°
2026-05-05 18:22 50.06049 -66.64495 37596 ft 437 kts 230°
2026-05-05 18:23 50.02016 -66.71564 37593 ft 437 kts 229°
2026-05-05 18:23 49.97949 -66.78672 37594 ft 437 kts 229°
2026-05-05 18:24 49.93933 -66.85672 37588 ft 437 kts 229°
2026-05-05 18:24 49.89887 -66.92706 37581 ft 437 kts 229°
2026-05-05 18:25 49.85840 -66.99722 37579 ft 436 kts 229°
2026-05-05 18:25 49.81798 -67.06711 37576 ft 436 kts 229°
2026-05-05 18:26 49.77748 -67.13695 37576 ft 435 kts 229°
2026-05-05 18:26 49.73704 -67.20649 37567 ft 434 kts 229°
2026-05-05 18:27 49.69663 -67.27579 37564 ft 434 kts 229°
2026-05-05 18:27 49.65615 -67.34502 37559 ft 434 kts 229°
2026-05-05 18:28 49.60230 -67.43684 37553 ft 433 kts 229°
2026-05-05 18:28 49.56186 -67.50558 37553 ft 433 kts 229°
2026-05-05 18:29 49.52143 -67.57411 37545 ft 432 kts 229°
2026-05-05 18:29 49.48098 -67.64250 37552 ft 432 kts 229°
2026-05-05 18:30 49.44054 -67.71070 37546 ft 431 kts 229°
2026-05-05 18:30 49.40014 -67.77864 37553 ft 431 kts 229°
2026-05-05 18:31 49.35961 -67.84663 37551 ft 432 kts 229°
2026-05-05 18:31 49.31904 -67.91450 37547 ft 432 kts 228°
2026-05-05 18:32 49.27843 -67.98226 37547 ft 432 kts 228°
2026-05-05 18:32 49.23779 -68.04989 37541 ft 431 kts 228°
2026-05-05 18:33 49.19715 -68.11735 37537 ft 431 kts 228°
2026-05-05 18:33 49.15649 -68.18467 37537 ft 431 kts 228°
2026-05-05 18:34 49.12081 -68.25775 37553 ft 431 kts 240°
2026-05-05 18:34 49.09125 -68.33759 37550 ft 432 kts 240°
2026-05-05 18:35 49.06163 -68.41740 37555 ft 433 kts 240°
2026-05-05 18:35 49.03196 -68.49712 37557 ft 432 kts 239°
2026-05-05 18:36 49.00225 -68.57668 37559 ft 432 kts 239°
2026-05-05 18:36 48.97247 -68.65621 37559 ft 431 kts 239°
2026-05-05 18:37 48.94265 -68.73560 37555 ft 432 kts 239°
2026-05-05 18:37 48.91303 -68.81422 37548 ft 431 kts 239°
2026-05-05 18:38 48.88314 -68.89331 37549 ft 432 kts 239°
2026-05-05 18:38 48.85313 -68.97249 37546 ft 432 kts 239°
2026-05-05 18:39 48.82311 -69.05145 37544 ft 432 kts 239°
2026-05-05 18:39 48.79305 -69.13029 37550 ft 431 kts 239°
2026-05-05 18:40 48.76297 -69.20893 37551 ft 431 kts 239°
2026-05-05 18:40 48.73292 -69.28729 37538 ft 429 kts 239°
2026-05-05 18:41 48.70287 -69.36538 37532 ft 429 kts 239°
2026-05-05 18:41 48.67281 -69.44330 37532 ft 428 kts 239°
2026-05-05 18:42 48.64290 -69.52060 37526 ft 429 kts 239°
2026-05-05 18:42 48.61272 -69.59835 37521 ft 428 kts 239°
2026-05-05 18:43 48.58255 -69.67587 37526 ft 428 kts 239°
2026-05-05 18:43 48.55230 -69.75334 37530 ft 428 kts 239°
2026-05-05 18:44 48.52205 -69.83059 37522 ft 427 kts 239°
2026-05-05 18:44 48.49181 -69.90762 37532 ft 427 kts 239°
2026-05-05 18:45 48.46145 -69.98471 37535 ft 427 kts 239°
2026-05-05 18:45 48.43103 -70.06174 37549 ft 428 kts 239°
2026-05-05 18:46 48.40054 -70.13873 37541 ft 428 kts 239°
2026-05-05 18:46 48.37007 -70.21542 37543 ft 426 kts 239°
2026-05-05 18:47 48.33965 -70.29178 37549 ft 425 kts 239°
2026-05-05 18:47 48.30928 -70.36780 37554 ft 425 kts 239°
2026-05-05 18:48 48.27908 -70.44318 37545 ft 423 kts 239°
2026-05-05 18:48 48.24879 -70.51857 37531 ft 422 kts 239°
2026-05-05 18:49 48.21845 -70.59389 37516 ft 420 kts 239°
2026-05-05 18:49 48.18822 -70.66871 37509 ft 418 kts 239°
2026-05-05 18:50 48.15807 -70.74312 37509 ft 418 kts 239°
2026-05-05 18:50 48.12782 -70.81757 37500 ft 418 kts 239°
2026-05-05 18:51 48.09751 -70.89197 37498 ft 418 kts 239°
2026-05-05 18:51 48.06714 -70.96633 37503 ft 420 kts 239°
2026-05-05 18:52 48.03663 -71.04079 37507 ft 420 kts 239°
2026-05-05 18:52 48.00604 -71.11527 37512 ft 421 kts 239°
2026-05-05 18:53 47.97559 -71.18920 37521 ft 421 kts 239°
2026-05-05 18:53 47.94488 -71.26355 37522 ft 421 kts 239°
2026-05-05 18:54 47.91408 -71.33789 37526 ft 421 kts 239°
2026-05-05 18:54 47.88322 -71.41221 37538 ft 421 kts 238°
2026-05-05 18:55 47.85227 -71.48652 37545 ft 422 kts 239°
2026-05-05 18:55 47.82129 -71.56070 37549 ft 422 kts 239°
2026-05-05 18:56 47.79025 -71.63482 37550 ft 422 kts 239°
2026-05-05 18:56 47.75919 -71.70880 37543 ft 421 kts 238°
2026-05-05 18:57 47.72810 -71.78265 37546 ft 421 kts 238°
2026-05-05 18:57 47.69700 -71.85632 37540 ft 421 kts 238°
2026-05-05 18:58 47.66583 -71.92994 37538 ft 421 kts 238°
2026-05-05 18:58 47.63481 -72.00303 37542 ft 422 kts 238°
2026-05-05 18:59 47.60352 -72.07653 37544 ft 422 kts 238°
2026-05-05 18:59 47.57218 -72.14998 37538 ft 422 kts 238°
2026-05-05 19:00 47.54075 -72.22342 37532 ft 422 kts 238°
2026-05-05 19:00 47.50927 -72.29680 37535 ft 422 kts 238°
2026-05-05 19:01 47.47778 -72.36997 37523 ft 421 kts 238°
2026-05-05 19:01 47.44628 -72.44301 37520 ft 421 kts 238°
2026-05-05 19:02 47.41492 -72.51551 37538 ft 421 kts 238°
2026-05-05 19:02 47.38331 -72.58840 37530 ft 421 kts 238°
2026-05-05 19:03 47.35171 -72.66108 37523 ft 420 kts 238°
2026-05-05 19:03 47.32015 -72.73347 37531 ft 419 kts 238°
2026-05-05 19:04 47.28861 -72.80564 37521 ft 418 kts 238°
2026-05-05 19:04 47.25705 -72.87763 37512 ft 418 kts 238°
2026-05-05 19:05 47.22553 -72.94937 37513 ft 417 kts 238°
2026-05-05 19:05 47.19399 -73.02094 37506 ft 416 kts 239°
2026-05-05 19:06 47.16247 -73.09232 37511 ft 416 kts 238°
2026-05-05 19:06 47.13092 -73.16355 37506 ft 415 kts 238°
2026-05-05 19:07 47.10475 -73.22251 37516 ft 414 kts 238°
2026-05-05 19:07 47.06815 -73.30475 37517 ft 414 kts 238°
2026-05-05 19:08 47.03660 -73.37544 37535 ft 414 kts 238°
2026-05-05 19:08 47.00505 -73.44596 37530 ft 413 kts 238°
2026-05-05 19:09 46.97344 -73.51641 37534 ft 413 kts 238°
2026-05-05 19:09 46.94189 -73.58657 37533 ft 412 kts 238°
2026-05-05 19:10 46.91035 -73.65654 37531 ft 412 kts 238°
2026-05-05 19:10 46.87885 -73.72623 37548 ft 410 kts 238°
2026-05-05 19:11 46.84738 -73.79568 37539 ft 410 kts 238°
2026-05-05 19:11 46.81591 -73.86495 37544 ft 409 kts 238°
2026-05-05 19:12 46.78443 -73.93408 37545 ft 409 kts 238°
2026-05-05 19:12 46.75825 -73.99144 37554 ft 408 kts 238°
2026-05-05 19:13 46.72167 -74.07138 37551 ft 407 kts 238°
2026-05-05 19:13 46.69528 -74.12892 37557 ft 408 kts 238°
2026-05-05 19:14 46.66374 -74.19752 37554 ft 407 kts 238°
2026-05-05 19:14 46.63250 -74.26531 37573 ft 406 kts 238°
2026-05-05 19:15 46.60107 -74.33335 37572 ft 405 kts 238°
2026-05-05 19:15 46.56960 -74.40128 37574 ft 405 kts 238°
2026-05-05 19:16 46.53814 -74.46906 37580 ft 405 kts 238°
2026-05-05 19:16 46.50663 -74.53676 37590 ft 404 kts 238°
2026-05-05 19:17 46.47516 -74.60421 37573 ft 403 kts 238°
2026-05-05 19:17 46.44366 -74.67159 37565 ft 403 kts 238°
2026-05-05 19:18 46.41216 -74.73877 37572 ft 402 kts 238°
2026-05-05 19:18 46.38072 -74.80568 37577 ft 402 kts 238°
2026-05-05 19:19 46.34923 -74.87254 37594 ft 401 kts 237°
2026-05-05 19:19 46.31793 -74.93884 37589 ft 402 kts 237°
2026-05-05 19:20 46.28637 -75.00552 37587 ft 401 kts 237°
2026-05-05 19:20 46.25484 -75.07199 37589 ft 401 kts 237°
2026-05-05 19:21 46.22325 -75.13842 37585 ft 400 kts 237°
2026-05-05 19:21 46.19166 -75.20468 37587 ft 401 kts 237°
2026-05-05 19:22 46.16002 -75.27092 37590 ft 401 kts 237°
2026-05-05 19:22 46.12850 -75.33673 37597 ft 401 kts 237°
2026-05-05 19:23 46.09680 -75.40277 37594 ft 401 kts 237°
2026-05-05 19:23 46.06500 -75.46887 37594 ft 401 kts 237°
2026-05-05 19:24 46.03316 -75.53488 37599 ft 401 kts 237°
2026-05-05 19:24 46.00130 -75.60080 37598 ft 401 kts 237°
2026-05-05 19:25 45.96944 -75.66654 37609 ft 401 kts 237°
2026-05-05 19:25 45.93753 -75.73225 37612 ft 401 kts 237°
2026-05-05 19:26 45.90579 -75.79746 37626 ft 401 kts 237°
2026-05-05 19:26 45.87451 -75.86371 37627 ft 401 kts 237°
2026-05-05 19:27 45.84315 -75.93000 37628 ft 401 kts 238°
2026-05-05 19:27 45.81192 -75.99632 37627 ft 402 kts 237°
2026-05-05 19:28 45.78047 -76.06271 37623 ft 402 kts 238°
2026-05-05 19:28 45.74902 -76.12906 37629 ft 402 kts 238°
2026-05-05 19:29 45.71772 -76.19491 37627 ft 403 kts 238°
2026-05-05 19:29 45.68611 -76.26125 37629 ft 403 kts 238°
2026-05-05 19:30 45.65448 -76.32748 37627 ft 403 kts 238°
2026-05-05 19:30 45.62284 -76.39359 37630 ft 403 kts 237°
2026-05-05 19:31 45.59113 -76.45966 37637 ft 403 kts 237°
2026-05-05 19:31 45.55935 -76.52575 37641 ft 403 kts 237°
2026-05-05 19:32 45.52773 -76.59133 37642 ft 403 kts 237°
2026-05-05 19:32 45.49594 -76.65713 37642 ft 402 kts 237°
2026-05-05 19:33 45.46416 -76.72276 37651 ft 402 kts 237°
2026-05-05 19:33 45.43234 -76.78831 37650 ft 403 kts 237°
2026-05-05 19:34 45.40041 -76.85395 37622 ft 403 kts 237°
2026-05-05 19:34 45.38441 -76.88676 37387 ft 404 kts 237°
2026-05-05 19:35 45.35261 -76.95185 36719 ft 395 kts 238°
2026-05-05 19:35 45.33722 -76.98332 36410 ft 389 kts 238°
2026-05-05 19:35 45.32186 -77.01471 36095 ft 384 kts 238°
2026-05-05 19:35 45.30667 -77.04572 35784 ft 380 kts 238°
2026-05-05 19:36 45.29162 -77.07640 35454 ft 379 kts 238°
2026-05-05 19:36 45.27656 -77.10707 35089 ft 380 kts 239°
2026-05-05 19:36 45.26143 -77.13784 34726 ft 380 kts 239°
2026-05-05 19:36 45.24629 -77.16859 34372 ft 379 kts 239°
2026-05-05 19:37 45.23125 -77.19910 34023 ft 377 kts 239°
2026-05-05 19:37 45.21625 -77.22950 33669 ft 375 kts 239°
2026-05-05 19:37 45.20133 -77.25975 33258 ft 374 kts 239°
2026-05-05 19:37 45.18640 -77.28999 32846 ft 376 kts 239°
2026-05-05 19:38 45.17136 -77.32037 32405 ft 375 kts 239°
2026-05-05 19:38 45.15646 -77.35040 31966 ft 370 kts 239°
2026-05-05 19:38 45.14173 -77.38010 31539 ft 366 kts 239°
2026-05-05 19:38 45.12712 -77.40957 31094 ft 365 kts 239°
2026-05-05 19:39 45.11252 -77.43897 30673 ft 365 kts 238°
2026-05-05 19:39 45.09805 -77.46807 30267 ft 368 kts 238°
2026-05-05 19:39 45.08322 -77.49785 29870 ft 371 kts 238°
2026-05-05 19:39 45.06830 -77.52776 29425 ft 373 kts 238°
2026-05-05 19:40 45.05310 -77.55821 28952 ft 375 kts 238°
2026-05-05 19:40 45.03802 -77.58841 28446 ft 378 kts 238°
2026-05-05 19:40 45.02303 -77.61838 27942 ft 379 kts 238°
2026-05-05 19:40 45.00782 -77.64876 27409 ft 377 kts 237°
2026-05-05 19:41 44.99271 -77.67891 26888 ft 374 kts 237°
2026-05-05 19:41 44.97773 -77.70876 26380 ft 371 kts 237°
2026-05-05 19:41 44.96287 -77.73836 25887 ft 368 kts 237°
2026-05-05 19:41 44.94811 -77.76774 25393 ft 366 kts 237°
2026-05-05 19:42 44.93339 -77.79699 24906 ft 364 kts 237°
2026-05-05 19:42 44.91876 -77.82604 24434 ft 362 kts 237°
2026-05-05 19:42 44.90415 -77.85500 23961 ft 360 kts 237°
2026-05-05 19:42 44.88966 -77.88372 23492 ft 359 kts 237°
2026-05-05 19:43 44.87523 -77.91227 23128 ft 356 kts 237°
2026-05-05 19:43 44.86074 -77.94045 22727 ft 355 kts 235°
2026-05-05 19:43 44.84583 -77.96802 22325 ft 353 kts 235°
2026-05-05 19:43 44.83102 -77.99552 21924 ft 351 kts 235°
2026-05-05 19:44 44.81630 -78.02284 21541 ft 349 kts 235°
2026-05-05 19:44 44.80164 -78.05000 21173 ft 347 kts 235°
2026-05-05 19:44 44.78738 -78.07635 20814 ft 337 kts 235°
2026-05-05 19:44 44.77346 -78.10206 20446 ft 324 kts 235°
2026-05-05 19:45 44.76006 -78.12681 20070 ft 312 kts 235°
2026-05-05 19:45 44.74713 -78.15069 19714 ft 302 kts 235°
2026-05-05 19:45 44.73454 -78.17392 19355 ft 296 kts 235°
2026-05-05 19:45 44.72215 -78.19675 19081 ft 291 kts 235°
2026-05-05 19:46 44.70983 -78.21944 18836 ft 293 kts 235°
2026-05-05 19:46 44.69744 -78.24224 18592 ft 293 kts 234°
2026-05-05 19:46 44.68506 -78.26498 18358 ft 293 kts 234°
2026-05-05 19:46 44.67269 -78.28770 18129 ft 291 kts 234°
2026-05-05 19:47 44.66040 -78.31025 17871 ft 291 kts 234°
2026-05-05 19:47 44.64815 -78.33271 17607 ft 289 kts 234°
2026-05-05 19:47 44.63592 -78.35513 17338 ft 288 kts 234°
2026-05-05 19:47 44.62378 -78.37735 17111 ft 286 kts 234°
2026-05-05 19:48 44.61170 -78.39946 16905 ft 285 kts 234°
2026-05-05 19:48 44.59967 -78.42145 16707 ft 284 kts 234°
2026-05-05 19:48 44.58767 -78.44337 16495 ft 283 kts 234°
2026-05-05 19:48 44.57571 -78.46521 16291 ft 282 kts 234°
2026-05-05 19:49 44.56378 -78.48695 16082 ft 281 kts 234°
2026-05-05 19:49 44.55591 -78.50130 15948 ft 280 kts 234°
2026-05-05 19:49 44.53971 -78.52987 15681 ft 280 kts 227°
2026-05-05 19:49 44.52357 -78.54571 15477 ft 288 kts 215°
2026-05-05 19:50 44.50543 -78.55786 15231 ft 290 kts 211°
2026-05-05 19:50 44.48676 -78.56869 14980 ft 290 kts 210°
2026-05-05 19:50 44.46800 -78.57905 14741 ft 289 kts 209°
2026-05-05 19:50 44.44923 -78.58921 14501 ft 288 kts 209°
2026-05-05 19:51 44.43079 -78.59911 14286 ft 286 kts 209°
2026-05-05 19:51 44.41246 -78.60888 14093 ft 279 kts 209°
2026-05-05 19:51 44.39448 -78.61837 13867 ft 275 kts 209°
2026-05-05 19:51 44.37662 -78.62776 13615 ft 273 kts 209°
2026-05-05 19:52 44.35890 -78.63704 13351 ft 271 kts 209°
2026-05-05 19:52 44.34272 -78.64909 13113 ft 258 kts 227°
2026-05-05 19:52 44.33283 -78.66935 12908 ft 254 kts 248°
2026-05-05 19:52 44.32837 -78.69335 12695 ft 256 kts 256°
2026-05-05 19:53 44.32577 -78.71803 12512 ft 257 kts 258°
2026-05-05 19:53 44.32375 -78.74276 12397 ft 256 kts 259°
2026-05-05 19:53 44.32189 -78.76752 12275 ft 257 kts 259°
2026-05-05 19:53 44.32009 -78.79234 12154 ft 256 kts 259°
2026-05-05 19:54 44.31833 -78.81708 12032 ft 256 kts 259°
2026-05-05 19:54 44.31658 -78.84185 11822 ft 257 kts 259°
2026-05-05 19:54 44.31485 -78.86667 11573 ft 256 kts 259°
2026-05-05 19:54 44.31318 -78.89119 11332 ft 249 kts 259°
2026-05-05 19:55 44.31168 -78.91474 11064 ft 238 kts 259°
2026-05-05 19:55 44.31033 -78.93725 10819 ft 228 kts 259°
2026-05-05 19:55 44.30875 -78.95904 10624 ft 223 kts 251°
2026-05-05 19:55 44.30230 -78.97849 10476 ft 222 kts 237°
2026-05-05 19:56 44.29271 -78.99541 10357 ft 223 kts 230°
2026-05-05 19:56 44.28183 -79.01096 10194 ft 224 kts 229°
2026-05-05 19:56 44.27098 -79.02655 10030 ft 224 kts 229°
2026-05-05 19:56 44.26038 -79.04238 9848 ft 223 kts 230°
2026-05-05 19:57 44.24999 -79.05799 9694 ft 223 kts 230°
2026-05-05 19:57 44.24285 -79.06866 9598 ft 222 kts 229°
2026-05-05 19:57 44.22883 -79.08952 9422 ft 223 kts 229°
2026-05-05 19:57 44.21822 -79.10532 9288 ft 223 kts 230°
2026-05-05 19:58 44.20757 -79.12118 9210 ft 225 kts 229°
2026-05-05 19:58 44.19684 -79.13713 9123 ft 226 kts 230°
2026-05-05 19:58 44.18607 -79.15313 9036 ft 226 kts 230°
2026-05-05 19:58 44.17532 -79.16912 8936 ft 227 kts 230°
2026-05-05 19:59 44.16451 -79.18517 8746 ft 227 kts 230°
2026-05-05 19:59 44.15370 -79.20120 8567 ft 228 kts 230°
2026-05-05 19:59 44.14282 -79.21734 8324 ft 229 kts 230°
2026-05-05 19:59 44.13204 -79.23329 8071 ft 229 kts 230°
2026-05-05 20:00 44.12141 -79.24902 7980 ft 215 kts 230°
2026-05-05 20:00 44.11163 -79.26347 7972 ft 198 kts 230°
2026-05-05 20:00 44.10233 -79.27726 7953 ft 195 kts 230°
2026-05-05 20:00 44.09303 -79.29106 7977 ft 195 kts 230°
2026-05-05 20:01 44.08366 -79.30480 7974 ft 197 kts 227°
2026-05-05 20:01 44.07225 -79.31567 7974 ft 203 kts 213°
2026-05-05 20:01 44.05850 -79.32159 7981 ft 213 kts 198°
2026-05-05 20:01 44.04314 -79.32180 7806 ft 228 kts 187°
2026-05-05 20:02 44.02718 -79.32030 7402 ft 231 kts 187°
2026-05-05 20:02 44.01114 -79.31887 7004 ft 231 kts 187°
2026-05-05 20:02 43.99515 -79.31752 6622 ft 230 kts 186°
2026-05-05 20:02 43.97912 -79.31619 6235 ft 231 kts 186°
2026-05-05 20:03 43.96849 -79.31532 5964 ft 232 kts 185°
2026-05-05 20:03 43.95227 -79.31398 5513 ft 234 kts 184°
2026-05-05 20:03 43.93590 -79.31261 5052 ft 237 kts 183°
2026-05-05 20:03 43.91924 -79.31123 4547 ft 242 kts 181°
2026-05-05 20:04 43.90235 -79.30977 4032 ft 245 kts 180°
2026-05-05 20:04 43.88544 -79.30894 3609 ft 239 kts 190°
2026-05-05 20:04 43.87031 -79.31620 3228 ft 227 kts 216°
2026-05-05 20:04 43.85907 -79.33030 3069 ft 210 kts 227°
2026-05-05 20:05 43.84878 -79.34424 2970 ft 204 kts 227°
2026-05-05 20:05 43.83902 -79.35797 2964 ft 198 kts 230°
2026-05-05 20:05 43.82956 -79.37181 2995 ft 198 kts 230°
2026-05-05 20:05 43.82005 -79.38567 2992 ft 199 kts 230°
2026-05-05 20:06 43.81056 -79.39953 2985 ft 200 kts 230°
2026-05-05 20:06 43.80160 -79.41255 2966 ft 176 kts 230°
2026-05-05 20:06 43.79331 -79.42481 2964 ft 175 kts 230°
2026-05-05 20:06 43.78524 -79.43661 2965 ft 169 kts 230°
2026-05-05 20:07 43.77702 -79.44859 2966 ft 169 kts 230°
2026-05-05 20:07 43.76912 -79.46016 2988 ft 167 kts 231°
2026-05-05 20:07 43.76120 -79.47184 3021 ft 167 kts 230°
2026-05-05 20:07 43.75311 -79.48361 2877 ft 170 kts 230°
2026-05-05 20:08 43.74498 -79.49552 2682 ft 169 kts 230°
2026-05-05 20:08 43.73723 -79.50674 2456 ft 156 kts 231°
2026-05-05 20:08 43.72998 -79.51745 2221 ft 150 kts 231°
2026-05-05 20:08 43.72289 -79.52776 1983 ft 147 kts 232°
2026-05-05 20:09 43.71579 -79.53810 1790 ft 147 kts 233°
2026-05-05 20:09 43.70886 -79.54834 1582 ft 150 kts 233°
2026-05-05 20:09 43.70183 -79.55854 1370 ft 143 kts 233°
2026-05-05 20:09 43.69497 -79.56861 1167 ft 147 kts 232°
2026-05-05 20:10 43.68804 -79.57876 950 ft 142 kts 232°
2026-05-05 20:10 43.68099 -79.58864 788 ft 147 kts 232°
2026-05-05 20:10 43.67407 -79.59895 592 ft 144 kts 232°
2026-05-05 20:10 43.66808 -79.60773 574 ft 104 kts 223°
2026-05-05 20:11 43.66387 -79.61380 568 ft 73 kts 226°
2026-05-05 20:11 43.66101 -79.61797 576 ft 37 kts 228°
2026-05-05 20:11 43.65992 -79.62073 573 ft 30 kts 252°
2026-05-05 20:11 43.65990 -79.62183 571 ft 8 kts 295°
2026-05-05 20:12 43.66031 -79.62248 574 ft 10 kts 317°
2026-05-05 20:12 43.66089 -79.62322 575 ft 13 kts 316°
2026-05-05 20:12 43.66158 -79.62411 574 ft 14 kts 316°
2026-05-05 20:12 43.66226 -79.62491 571 ft 7 kts 333°
2026-05-05 20:13 43.66245 -79.62496 572 ft 4 kts 356°
2026-05-05 20:13 43.66300 -79.62478 571 ft 9 kts 25°
2026-05-05 20:13 43.66323 -79.62457 572 ft 2 kts 45°
2026-05-05 20:13 43.66349 -79.62416 570 ft 12 kts 49°
2026-05-05 20:14 43.66425 -79.62317 574 ft 17 kts 41°
2026-05-05 20:14 43.66528 -79.62184 577 ft 21 kts 43°
2026-05-05 20:14 43.66638 -79.62047 575 ft 22 kts 42°
2026-05-05 20:14 43.66752 -79.61904 579 ft 22 kts 43°
2026-05-05 20:15 43.66870 -79.61758 579 ft 24 kts 41°
2026-05-05 20:15 43.67000 -79.61591 575 ft 25 kts 43°
2026-05-05 20:15 43.67119 -79.61442 577 ft 22 kts 43°
2026-05-05 20:15 43.67217 -79.61292 575 ft 16 kts 54°
2026-05-05 20:16 43.67244 -79.61256 576 ft 2 kts 21°
2026-05-05 20:16 43.67266 -79.61263 573 ft 6 kts 341°
2026-05-05 20:16 43.67317 -79.61317 572 ft 11 kts 320°
2026-05-05 20:16 43.67342 -79.61335 576 ft 1 kts 353°
2026-05-05 20:17 43.67357 -79.61328 575 ft 7 kts 20°
2026-05-05 20:17 43.67427 -79.61291 573 ft 12 kts 21°
2026-05-05 20:17 43.67455 -79.61282 577 ft 1 kts 353°
2026-05-05 20:17 43.67483 -79.61305 573 ft 8 kts 321°
2026-05-05 20:18 43.67521 -79.61383 576 ft 8 kts 305°
2026-05-05 20:18 43.67529 -79.61392 570 ft 1 kts 328°
2026-05-05 20:18 43.67542 -79.61393 571 ft 4 kts 355°
2026-05-05 20:18 43.67552 -79.61389 572 ft 1 kts 21°
2026-05-05 20:19 43.67578 -79.61366 575 ft 6 kts 36°
2026-05-05 20:19 43.67591 -79.61350 575 ft 1 kts 45°
2026-05-05 20:19 43.67598 -79.61340 575 ft 1 kts 45°
2026-05-05 20:19 43.67601 -79.61336 575 ft 1 kts 44°
2026-05-05 20:20 43.67608 -79.61326 575 ft 1 kts 45°
2026-05-05 20:20 43.67614 -79.61319 573 ft 1 kts 45°
2026-05-05 20:20 43.67618 -79.61313 572 ft 0 kts 45°